Location: Heisler
(52.6701°N, 112.2239°W)
Time: 15:16:46
(UTC+00:00)

N. Korean satellite - Visible Passes

Search period start: 01 December 2021 00:00
Search period end: 11 December 2021 00:00
Orbit: 447 x 495 km, 97.3° (Epoch: 01 December)

Date Brightness Start Highest point End Pass type
(mag) Time Alt. Az. Time Alt. Az. Time Alt. Az.
01 Dec 7.6 12:32:20 10° NNE 12:35:37 42° E 12:38:50 10° S visible
01 Dec 7.9 14:06:09 10° NNW 14:08:34 18° WNW 14:10:56 10° WSW visible
02 Dec 9.5 00:45:54 10° SW 00:48:32 19° W 00:51:09 10° NW visible
02 Dec 9.0 12:04:17 10° NE 12:06:57 21° E 12:09:35 10° SE visible
02 Dec 7.0 13:37:09 10° N 13:40:15 33° WNW 13:43:20 10° SW visible
03 Dec 8.2 00:16:33 10° SSW 00:19:51 37° W 00:23:09 10° NNW visible
03 Dec 9.9 11:37:20 10° ENE 11:38:10 11° E 11:38:59 10° ESE visible
03 Dec 6.2 13:08:25 10° N 13:11:50 71° WNW 13:15:11 10° SSW visible
04 Dec 7.2 12:39:57 10° NNE 12:43:17 52° E 12:46:36 10° S visible
04 Dec 8.0 14:14:03 10° NNW 14:16:08 15° WNW 14:18:12 10° W visible
05 Dec 9.7 00:53:59 10° SW 00:56:14 16° W 00:58:29 10° NW visible
05 Dec 8.7 12:11:45 10° NE 12:14:37 25° E 12:17:28 10° SSE visible
05 Dec 7.3 13:44:52 10° N 13:47:49 28° WNW 13:50:45 10° SW visible
06 Dec 8.6 00:24:21 10° SSW 00:27:30 31° W 00:30:38 10° NNW visible
06 Dec 9.7 11:44:12 10° ENE 11:45:49 13° E 11:47:27 10° ESE visible
06 Dec 6.4 13:16:02 10° N 13:19:23 57° WNW 13:22:43 10° SSW visible
06 Dec 7.0 23:55:22 10° S 23:58:51 65° WSW 00:02:18 10° NNW visible
07 Dec 6.7 12:47:27 10° NNE 12:50:50 65° ESE 12:54:12 10° S visible
07 Dec 8.2 14:21:55 10° NNW 14:23:36 13° WNW 14:25:16 10° W visible
08 Dec 9.8 01:02:04 10° WSW 01:03:51 13° W 01:05:37 10° WNW visible
08 Dec 8.3 12:19:07 10° NNE 12:22:10 30° E 12:25:11 10° SSE visible
08 Dec 7.5 13:52:30 10° N 13:55:16 24° WNW 13:58:02 10° WSW visible
09 Dec 9.0 00:32:05 10° SSW 00:35:03 25° W 00:37:59 10° NW visible
09 Dec 9.5 11:51:17 10° NE 11:53:22 15° E 11:55:28 10° SE visible
09 Dec 6.6 13:23:33 10° N 13:26:50 46° WNW 13:30:06 10° SW visible
10 Dec 7.4 00:02:55 10° S 00:06:20 52° W 00:09:43 10° NNW visible
10 Dec 7.1 12:54:52 10° NNE 13:00:09 25° S 13:01:40 10° S visible
10 Dec 8.4 14:29:48 10° NW 14:30:57 11° WNW 14:31:21 11° WNW visible
